QPF
0.02 0.02 0.02 0.02 0.01 0.01 0.01 0.01 0.01 0.01 0.01 0.01 0.01 0.00 0.01 0.01 0.01 0.01 0.00 0.00 0.00 0.00 0.00 0.00 0.00 0.01 0.01 0.01 0.01 0.01 0.01 0.02 0.01 0.01 0.01 0.01 0.00 0.01 0.01 0.01 0.01 0.01 0.00
0.01 0.02 0.02 0.02 0.02 0.01 0.01 0.01 0.01 0.01 0.01 0.01 0.01 0.01 0.01 0.00 0.00 0.00 0.00 0.00 0.01 0.00 0.00 0.00 0.00 0.00 0.01 0.01 0.01 0.01 0.01 0.01 0.01 0.01 0.01 0.01 0.01 0.01 0.01 0.01 0.01 0.00 0.01
0.01 0.01 0.01 0.02 0.02 0.02 0.02 0.01 0.01 0.01 0.01 0.01 0.02 0.02 0.01 0.01 0.01 0.00 0.00 0.00 0.00 0.00 0.00 0.00 0.00 0.00 0.00 0.00 0.01 0.01 0.01 0.01 0.01 0.00 0.00 0.00 0.01 0.01 0.00 0.00 0.01 0.01 0.01
0.01 0.01 0.01 0.01 0.02 0.01 0.01 0.02 0.01 0.01 0.01 0.02 0.02 0.02 0.02 0.01 0.01 0.00 0.00 0.00 0.00 0.00 0.00 0.00 0.00 0.00 0.00 0.00 0.01 0.01 0.01 0.01 0.01 0.00 0.00 0.00 0.00 0.00 0.01 0.01 0.01 0.01 0.01
0.02 0.01 0.01 0.01 0.02 0.02 0.01 0.01 0.01 0.02 0.01 0.01 0.02 0.01 0.01 0.01 0.01 0.01 0.01 0.00 0.00 0.00 0.00 0.00 0.00 0.00 0.00 0.00 0.00 0.00 0.01 0.01 0.02 0.01 0.01 0.01 0.00 0.01 0.01 0.01 0.01 0.01 0.01
0.02 0.01 0.01 0.01 0.01 0.02 0.01 0.01 0.01 0.01 0.01 0.01 0.01 0.01 0.01 0.01 0.01 0.01 0.01 0.00 0.00 0.00 0.00 0.00 0.00 0.00 0.00 0.01 0.01 0.01 0.01 0.01 0.02 0.02 0.02 0.02 0.01 0.01 0.01 0.01 0.01 0.01 0.01
0.02 0.01 0.01 0.02 0.01 0.01 0.01 0.01 0.01 0.01 0.02 0.02 0.02 0.02 0.02 0.02 0.02 0.01 0.01 0.01 0.00 0.00 0.00 0.00 0.00 0.00 0.00 0.00 0.01 0.01 0.01 0.01 0.01 0.01 0.02 0.02 0.03 0.02 0.02 0.02 0.02 0.01 0.01
0.02 0.01 0.01 0.01 0.01 0.01 0.01 0.01 0.01 0.01 0.01 0.02 0.02 0.03 0.03 0.03 0.02 0.02 0.02 0.01 0.00 0.00 0.00 0.00 0.00 0.00 0.00 0.00 0.01 0.01 0.01 0.01 0.01 0.01 0.01 0.01 0.02 0.03 0.03 0.02 0.02 0.02 0.01
0.02 0.02 0.01 0.01 0.01 0.01 0.01 0.01 0.01 0.00 0.00 0.00 0.01 0.01 0.02 0.03 0.02 0.02 0.01 0.01 0.00 0.00 0.00 0.00 0.00 0.00 0.00 0.00 0.00 0.01 0.01 0.00 0.01 0.01 0.01 0.01 0.00 0.01 0.01 0.02 0.02 0.02 0.01
0.02 0.02 0.02 0.01 0.01 0.00 0.01 0.01 0.01 0.01 0.01 0.01 0.01 0.01 0.01 0.02 0.02 0.02 0.01 0.01 0.00 0.00 0.00 0.00 0.01 0.01 0.00 0.00 0.00 0.00 0.01 0.01 0.01 0.01 0.01 0.01 0.01 0.01 0.01 0.01 0.01 0.01 0.01
0.01 0.01 0.01 0.01 0.01 0.00 0.00 0.01 0.01 0.01 0.01 0.01 0.01 0.01 0.01 0.02 0.01 0.01 0.01 0.00 0.00 0.00 0.00 0.00 0.00 0.00 0.00 0.00 0.00 0.00 0.00 0.01 0.01 0.01 0.01 0.01 0.01 0.01 0.01 0.01 0.00 0.00 0.01
0.01 0.01 0.01 0.01 0.00 0.00 0.00 0.00 0.01 0.01 0.01 0.01 0.01 0.01 0.01 0.02 0.03 0.02 0.01 0.01 0.00 0.00 0.00 0.00 0.01 0.01 0.01 0.01 0.00 0.00 0.00 0.00 0.01 0.01 0.00 0.01 0.01 0.00 0.00 0.01 0.01 0.01 0.00
0.00 0.00 0.01 0.01 0.01 0.01 0.00 0.01 0.01 0.01 0.01 0.01 0.01 0.01 0.01 0.01 0.03 0.04 0.03 0.02 0.01 0.01 0.01 0.02 0.02 0.02 0.02 0.02 0.01 0.01 0.01 0.01 0.01 0.00 0.00 0.01 0.01 0.01 0.01 0.01 0.01 0.01 0.02
0.00 0.00 0.00 0.00 0.00 0.00 0.01 0.01 0.01 0.01 0.01 0.01 0.01 0.01 0.01 0.01 0.01 0.02 0.03 0.03 0.01 0.01 0.02 0.02 0.03 0.03 0.03 0.03 0.03 0.03 0.03 0.02 0.02 0.01 0.01 0.01 0.02 0.02 0.02 0.02 0.02 0.02 0.03
0.00 0.00 0.00 0.00 0.00 0.00 0.00 0.01 0.01 0.01 0.01 0.02 0.02 0.02 0.02 0.02 0.02 0.02 0.02 0.02 0.01 0.01 0.01 0.01 0.01 0.02 0.02 0.02 0.02 0.03 0.03 0.03 0.03 0.03 0.03 0.03 0.03 0.03 0.03 0.03 0.03 0.04 0.03
0.00 0.00 0.00 0.00 0.00 0.00 0.00 0.01 0.02 0.02 0.02 0.02 0.02 0.03 0.03 0.03 0.03 0.04 0.04 0.04 0.03 0.03 0.02 0.01 0.01 0.01 0.01 0.01 0.01 0.01 0.01 0.02 0.02 0.03 0.03 0.03 0.03 0.03 0.03 0.03 0.03 0.03 0.03
0.00 0.00 0.01 0.01 0.01 0.01 0.00 0.01 0.01 0.02 0.04 0.05 0.04 0.03 0.03 0.03 0.03 0.04 0.05 0.05 0.06 0.04 0.03 0.01 0.01 0.01 0.01 0.01 0.01 0.01 0.01 0.01 0.01 0.01 0.01 0.01 0.01 0.02 0.02 0.02 0.02 0.02 0.02
0.00 0.00 0.01 0.01 0.01 0.01 0.01 0.01 0.01 0.01 0.02 0.03 0.04 0.05 0.05 0.04 0.04 0.04 0.06 0.05 0.05 0.03 0.02 0.01 0.01 0.01 0.01 0.01 0.01 0.01 0.01 0.01 0.01 0.01 0.01 0.01 0.01 0.01 0.01 0.01 0.01 0.01 0.02
0.01 0.01 0.01 0.01 0.01 0.01 0.01 0.02 0.02 0.02 0.02 0.02 0.02 0.03 0.04 0.04 0.05 0.05 0.06 0.06 0.04 0.04 0.03 0.01 0.01 0.00 0.00 0.00 0.00 0.00 0.00 0.01 0.01 0.01 0.01 0.01 0.01 0.01 0.01 0.01 0.01 0.01 0.02
0.01 0.01 0.01 0.02 0.02 0.02 0.02 0.02 0.02 0.03 0.02 0.02 0.02 0.02 0.03 0.03 0.03 0.03 0.04 0.04 0.05 0.05 0.05 0.03 0.01 0.01 0.01 0.01 0.01 0.01 0.01 0.01 0.01 0.01 0.01 0.01 0.01 0.02 0.02 0.02 0.02 0.02 0.02
0.01 0.02 0.02 0.02 0.01 0.01 0.02 0.02 0.03 0.03 0.03 0.03 0.02 0.02 0.02 0.02 0.02 0.02 0.02 0.02 0.03 0.03 0.04 0.04 0.03 0.02 0.02 0.02 0.02 0.02 0.02 0.02 0.02 0.01 0.01 0.01 0.01 0.01 0.01 0.02 0.02 0.02 0.02
0.02 0.01 0.01 0.01 0.01 0.02 0.02 0.03 0.04 0.04 0.04 0.03 0.03 0.02 0.02 0.02 0.02 0.02 0.02 0.01 0.01 0.01 0.02 0.02 0.02 0.02 0.02 0.02 0.02 0.02 0.02 0.02 0.02 0.02 0.02 0.02 0.02 0.02 0.02 0.02 0.02 0.02 0.02
0.02 0.02 0.02 0.02 0.02 0.03 0.03 0.03 0.03 0.04 0.04 0.04 0.03 0.02 0.01 0.01 0.01 0.01 0.01 0.01 0.01 0.01 0.01 0.01 0.02 0.02 0.02 0.02 0.02 0.02 0.02 0.02 0.02 0.02 0.02 0.02 0.02 0.02 0.02 0.01 0.01 0.01 0.01
0.02 0.02 0.02 0.03 0.03 0.04 0.04 0.04 0.04 0.04 0.04 0.04 0.03 0.02 0.01 0.01 0.01 0.01 0.01 0.01 0.01 0.01 0.02 0.02 0.02 0.02 0.02 0.02 0.02 0.02 0.02 0.02 0.02 0.02 0.02 0.02 0.02 0.02 0.02 0.02 0.01 0.01 0.01
0.01 0.02 0.02 0.02 0.03 0.03 0.04 0.04 0.04 0.03 0.03 0.03 0.03 0.02 0.02 0.01 0.01 0.01 0.01 0.01 0.01 0.01 0.01 0.02 0.02 0.02 0.02 0.01 0.01 0.01 0.02 0.02 0.02 0.02 0.02 0.02 0.02 0.02 0.02 0.02 0.02 0.02 0.01
0.02 0.02 0.02 0.03 0.02 0.03 0.03 0.04 0.04 0.04 0.03 0.03 0.02 0.02 0.02 0.01 0.01 0.02 0.02 0.01 0.01 0.01 0.01 0.01 0.01 0.02 0.02 0.02 0.02 0.02 0.02 0.02 0.02 0.02 0.02 0.02 0.02 0.02 0.02 0.02 0.02 0.02 0.02
MSLP
1018.98 1019.57 1020.17 1020.73 1021.25 1021.69 1022.07 1022.38 1022.64 1022.86 1023.07 1023.26 1023.45 1023.63 1023.81 1023.96 1024.09 1024.19 1024.26 1024.30 1024.29 1024.25 1024.17 1024.05 1023.92 1023.76 1023.61 1023.48 1023.40 1023.38 1023.43 1023.56 1023.77 1024.02 1024.31 1024.58 1024.81 1024.97 1025.04 1025.02 1024.93 1024.78 1024.59
1018.75 1019.40 1020.05 1020.68 1021.26 1021.77 1022.21 1022.59 1022.91 1023.19 1023.44 1023.66 1023.88 1024.08 1024.27 1024.45 1024.59 1024.72 1024.82 1024.88 1024.91 1024.90 1024.86 1024.77 1024.65 1024.51 1024.35 1024.20 1024.08 1024.01 1024.00 1024.06 1024.19 1024.37 1024.58 1024.79 1024.97 1025.09 1025.14 1025.12 1025.02 1024.89 1024.72
1018.54 1019.22 1019.92 1020.60 1021.24 1021.82 1022.34 1022.78 1023.17 1023.51 1023.80 1024.07 1024.31 1024.53 1024.72 1024.90 1025.05 1025.18 1025.29 1025.37 1025.42 1025.45 1025.44 1025.39 1025.31 1025.20 1025.07 1024.93 1024.81 1024.72 1024.67 1024.68 1024.74 1024.85 1024.98 1025.11 1025.22 1025.28 1025.28 1025.23 1025.12 1024.97 1024.81
1018.34 1019.05 1019.78 1020.51 1021.20 1021.84 1022.42 1022.94 1023.39 1023.79 1024.14 1024.44 1024.71 1024.94 1025.14 1025.31 1025.46 1025.58 1025.69 1025.78 1025.85 1025.90 1025.93 1025.94 1025.91 1025.85 1025.76 1025.66 1025.56 1025.48 1025.42 1025.39 1025.40 1025.43 1025.48 1025.53 1025.55 1025.54 1025.48 1025.37 1025.23 1025.06 1024.88
1018.15 1018.87 1019.63 1020.38 1021.11 1021.80 1022.44 1023.01 1023.53 1023.98 1024.38 1024.73 1025.03 1025.28 1025.48 1025.66 1025.80 1025.92 1026.02 1026.12 1026.21 1026.29 1026.36 1026.41 1026.44 1026.44 1026.41 1026.37 1026.31 1026.24 1026.18 1026.13 1026.10 1026.07 1026.04 1026.00 1025.94 1025.85 1025.72 1025.55 1025.36 1025.15 1024.94
1017.96 1018.69 1019.45 1020.22 1020.97 1021.69 1022.36 1022.98 1023.54 1024.05 1024.49 1024.88 1025.21 1025.48 1025.71 1025.89 1026.04 1026.16 1026.28 1026.39 1026.49 1026.61 1026.71 1026.81 1026.90 1026.96 1027.00 1027.01 1026.99 1026.95 1026.90 1026.84 1026.77 1026.69 1026.60 1026.48 1026.35 1026.18 1025.98 1025.75 1025.51 1025.26 1025.02
1017.76 1018.49 1019.24 1020.01 1020.76 1021.49 1022.18 1022.82 1023.41 1023.95 1024.43 1024.85 1025.21 1025.51 1025.76 1025.97 1026.14 1026.29 1026.43 1026.56 1026.70 1026.85 1027.00 1027.15 1027.29 1027.40 1027.49 1027.54 1027.57 1027.55 1027.51 1027.44 1027.35 1027.23 1027.09 1026.92 1026.72 1026.50 1026.24 1025.97 1025.69 1025.40 1025.13
1017.55 1018.27 1019.01 1019.76 1020.49 1021.21 1021.89 1022.53 1023.13 1023.68 1024.18 1024.63 1025.01 1025.35 1025.64 1025.88 1026.09 1026.28 1026.46 1026.64 1026.82 1027.01 1027.20 1027.39 1027.57 1027.73 1027.85 1027.94 1027.99 1028.00 1027.96 1027.89 1027.78 1027.64 1027.47 1027.26 1027.03 1026.77 1026.49 1026.19 1025.89 1025.58 1025.28
1017.33 1018.03 1018.75 1019.47 1020.18 1020.87 1021.53 1022.15 1022.73 1023.28 1023.78 1024.23 1024.64 1025.01 1025.33 1025.62 1025.89 1026.13 1026.36 1026.59 1026.83 1027.06 1027.30 1027.53 1027.74 1027.92 1028.07 1028.18 1028.24 1028.26 1028.23 1028.15 1028.04 1027.89 1027.71 1027.49 1027.25 1026.98 1026.70 1026.39 1026.08 1025.77 1025.47
1017.10 1017.79 1018.48 1019.17 1019.85 1020.50 1021.12 1021.71 1022.26 1022.78 1023.27 1023.73 1024.15 1024.54 1024.90 1025.23 1025.55 1025.86 1026.15 1026.44 1026.73 1027.01 1027.28 1027.54 1027.77 1027.97 1028.13 1028.25 1028.31 1028.33 1028.31 1028.24 1028.13 1027.98 1027.81 1027.60 1027.37 1027.12 1026.84 1026.56 1026.26 1025.96 1025.66
1016.86 1017.53 1018.20 1018.86 1019.50 1020.11 1020.68 1021.23 1021.75 1022.24 1022.70 1023.15 1023.57 1023.98 1024.37 1024.75 1025.12 1025.48 1025.84 1026.18 1026.52 1026.85 1027.15 1027.43 1027.67 1027.88 1028.04 1028.15 1028.22 1028.24 1028.22 1028.16 1028.06 1027.93 1027.78 1027.60 1027.39 1027.16 1026.92 1026.66 1026.38 1026.10 1025.81
1016.62 1017.26 1017.90 1018.53 1019.13 1019.70 1020.23 1020.74 1021.22 1021.68 1022.12 1022.54 1022.96 1023.38 1023.80 1024.21 1024.62 1025.03 1025.44 1025.84 1026.22 1026.57 1026.90 1027.19 1027.44 1027.65 1027.80 1027.91 1027.98 1028.00 1027.99 1027.94 1027.86 1027.76 1027.64 1027.49 1027.31 1027.12 1026.90 1026.67 1026.43 1026.17 1025.90
1016.35 1016.96 1017.57 1018.16 1018.72 1019.25 1019.75 1020.22 1020.67 1021.09 1021.51 1021.92 1022.34 1022.76 1023.19 1023.63 1024.07 1024.52 1024.96 1025.39 1025.80 1026.18 1026.52 1026.82 1027.07 1027.27 1027.43 1027.54 1027.60 1027.64 1027.64 1027.61 1027.57 1027.50 1027.40 1027.29 1027.15 1026.98 1026.80 1026.59 1026.36 1026.12 1025.87
1016.05 1016.61 1017.17 1017.72 1018.25 1018.75 1019.21 1019.65 1020.07 1020.48 1020.87 1021.27 1021.68 1022.10 1022.54 1023.00 1023.46 1023.93 1024.40 1024.85 1025.27 1025.66 1026.01 1026.31 1026.56 1026.76 1026.92 1027.03 1027.11 1027.16 1027.19 1027.20 1027.18 1027.15 1027.09 1027.01 1026.90 1026.76 1026.60 1026.41 1026.20 1025.97 1025.73
1015.71 1016.21 1016.71 1017.21 1017.69 1018.16 1018.59 1019.01 1019.41 1019.79 1020.17 1020.56 1020.97 1021.39 1021.83 1022.29 1022.77 1023.25 1023.72 1024.18 1024.61 1025.00 1025.34 1025.64 1025.89 1026.09 1026.26 1026.39 1026.49 1026.57 1026.64 1026.69 1026.72 1026.73 1026.71 1026.66 1026.58 1026.46 1026.32 1026.14 1025.94 1025.72 1025.49
1015.35 1015.76 1016.19 1016.63 1017.06 1017.48 1017.88 1018.27 1018.65 1019.02 1019.39 1019.77 1020.17 1020.59 1021.04 1021.50 1021.97 1022.45 1022.91 1023.36 1023.78 1024.16 1024.50 1024.79 1025.04 1025.25 1025.43 1025.59 1025.73 1025.85 1025.97 1026.07 1026.15 1026.21 1026.24 1026.24 1026.19 1026.10 1025.97 1025.81 1025.62 1025.41 1025.19
1015.00 1015.32 1015.66 1016.03 1016.39 1016.76 1017.12 1017.47 1017.82 1018.18 1018.53 1018.91 1019.30 1019.71 1020.15 1020.60 1021.06 1021.52 1021.97 1022.40 1022.79 1023.15 1023.47 1023.76 1024.00 1024.23 1024.43 1024.62 1024.80 1024.98 1025.16 1025.32 1025.47 1025.60 1025.69 1025.73 1025.73 1025.68 1025.58 1025.44 1025.27 1025.08 1024.88
1014.72 1014.94 1015.19 1015.46 1015.75 1016.05 1016.35 1016.66 1016.98 1017.30 1017.64 1017.99 1018.37 1018.76 1019.18 1019.61 1020.04 1020.47 1020.89 1021.29 1021.65 1021.98 1022.28 1022.55 1022.79 1023.02 1023.25 1023.47 1023.70 1023.95 1024.19 1024.43 1024.66 1024.86 1025.02 1025.14 1025.20 1025.20 1025.15 1025.06 1024.92 1024.76 1024.59
1014.57 1014.68 1014.83 1015.01 1015.21 1015.43 1015.66 1015.91 1016.17 1016.45 1016.75 1017.07 1017.42 1017.79 1018.17 1018.56 1018.96 1019.35 1019.72 1020.07 1020.39 1020.68 1020.94 1021.19 1021.43 1021.66 1021.91 1022.17 1022.45 1022.75 1023.06 1023.38 1023.70 1023.98 1024.24 1024.44 1024.58 1024.66 1024.68 1024.65 1024.57 1024.46 1024.32
1014.57 1014.59 1014.64 1014.72 1014.82 1014.94 1015.09 1015.27 1015.46 1015.68 1015.93 1016.21 1016.51 1016.83 1017.16 1017.51 1017.85 1018.18 1018.49 1018.79 1019.05 1019.29 1019.52 1019.74 1019.96 1020.19 1020.44 1020.73 1021.06 1021.42 1021.80 1022.20 1022.60 1022.98 1023.33 1023.63 1023.87 1024.04 1024.15 1024.20 1024.19 1024.15 1024.07
1014.71 1014.64 1014.60 1014.58 1014.58 1014.61 1014.67 1014.76 1014.88 1015.02 1015.21 1015.42 1015.65 1015.91 1016.19 1016.47 1016.74 1017.01 1017.26 1017.48 1017.69 1017.88 1018.05 1018.24 1018.43 1018.65 1018.92 1019.23 1019.58 1019.99 1020.43 1020.90 1021.39 1021.86 1022.30 1022.70 1023.05 1023.32 1023.54 1023.68 1023.76 1023.79 1023.77
1014.90 1014.76 1014.64 1014.53 1014.45 1014.38 1014.35 1014.35 1014.38 1014.45 1014.55 1014.69 1014.85 1015.04 1015.25 1015.45 1015.66 1015.85 1016.03 1016.19 1016.33 1016.47 1016.60 1016.74 1016.91 1017.13 1017.39 1017.71 1018.09 1018.53 1019.02 1019.55 1020.10 1020.65 1021.18 1021.68 1022.12 1022.50 1022.82 1023.06 1023.23 1023.33 1023.38
1015.04 1014.84 1014.65 1014.47 1014.30 1014.16 1014.04 1013.95 1013.90 1013.89 1013.91 1013.97 1014.06 1014.17 1014.30 1014.44 1014.57 1014.70 1014.81 1014.91 1015.00 1015.09 1015.18 1015.30 1015.45 1015.65 1015.90 1016.23 1016.63 1017.09 1017.62 1018.19 1018.79 1019.40 1020.00 1020.58 1021.11 1021.58 1021.98 1022.31 1022.56 1022.74 1022.86
1014.96 1014.72 1014.48 1014.24 1014.01 1013.80 1013.61 1013.45 1013.32 1013.23 1013.18 1013.17 1013.19 1013.23 1013.29 1013.37 1013.44 1013.51 1013.57 1013.63 1013.68 1013.73 1013.81 1013.91 1014.05 1014.24 1014.50 1014.84 1015.24 1015.72 1016.27 1016.86 1017.50 1018.15 1018.80 1019.43 1020.02 1020.55 1021.02 1021.42 1021.75 1022.00 1022.17
1014.56 1014.29 1014.02 1013.73 1013.46 1013.19 1012.95 1012.73 1012.55 1012.40 1012.29 1012.21 1012.17 1012.16 1012.16 1012.18 1012.21 1012.24 1012.27 1012.30 1012.34 1012.38 1012.45 1012.56 1012.71 1012.91 1013.18 1013.53 1013.95 1014.44 1015.00 1015.60 1016.25 1016.92 1017.59 1018.25 1018.88 1019.45 1019.97 1020.42 1020.80 1021.11 1021.34
1013.78 1013.49 1013.19 1012.88 1012.57 1012.27 1011.99 1011.74 1011.51 1011.32 1011.16 1011.04 1010.96 1010.90 1010.87 1010.85 1010.85 1010.86 1010.88 1010.90 1010.94 1011.01 1011.10 1011.23 1011.40 1011.63 1011.93 1012.30 1012.73 1013.24 1013.80 1014.41 1015.06 1015.73 1016.40 1017.07 1017.70 1018.30 1018.84 1019.33 1019.74 1020.09 1020.37
Thickness
5693 5691 5689 5688 5687 5685 5684 5682 5681 5680 5678 5677 5675 5674 5673 5672 5671 5670 5670 5669 5668 5668 5667 5667 5666 5665 5665 5664 5663 5662 5661 5660 5656 5655 5654 5652 5649 5648 5645 5644 5643 5642 5641
5689 5688 5687 5685 5683 5682 5681 5679 5678 5676 5675 5674 5673 5671 5670 5669 5669 5668 5667 5666 5665 5665 5664 5664 5663 5661 5661 5661 5659 5659 5657 5656 5655 5651 5650 5648 5646 5645 5643 5641 5640 5640 5638
5685 5684 5682 5681 5680 5678 5678 5677 5675 5674 5672 5671 5669 5668 5667 5666 5665 5665 5664 5664 5663 5662 5662 5661 5660 5659 5658 5657 5656 5655 5654 5653 5651 5650 5648 5645 5643 5641 5639 5638 5637 5636 5635
5681 5679 5678 5677 5676 5675 5674 5673 5672 5671 5669 5668 5666 5665 5664 5663 5663 5662 5662 5661 5660 5659 5659 5658 5657 5656 5655 5654 5653 5652 5651 5649 5648 5647 5645 5643 5641 5638 5636 5635 5634 5633 5632
5676 5675 5674 5673 5672 5671 5670 5669 5668 5667 5666 5664 5663 5661 5660 5659 5659 5658 5658 5658 5657 5656 5655 5654 5654 5652 5650 5649 5649 5648 5647 5645 5645 5644 5643 5641 5639 5636 5634 5634 5632 5631 5630
5671 5669 5668 5667 5666 5665 5665 5664 5663 5661 5660 5660 5659 5658 5657 5656 5653 5651 5651 5652 5653 5652 5651 5650 5649 5647 5644 5642 5641 5641 5641 5641 5641 5640 5640 5639 5638 5636 5633 5631 5629 5628 5626
5665 5663 5662 5662 5660 5659 5659 5658 5657 5656 5656 5655 5655 5654 5653 5651 5647 5645 5644 5646 5648 5648 5648 5647 5646 5644 5641 5641 5638 5635 5635 5633 5633 5636 5636 5636 5636 5635 5630 5628 5626 5625 5624
5657 5657 5656 5655 5655 5654 5653 5653 5652 5652 5651 5650 5649 5649 5648 5647 5643 5640 5639 5641 5643 5643 5643 5643 5642 5640 5638 5637 5637 5635 5635 5633 5631 5630 5632 5633 5632 5630 5628 5625 5623 5621 5620
5649 5649 5649 5649 5648 5647 5647 5647 5647 5647 5646 5645 5645 5643 5642 5642 5638 5635 5633 5636 5637 5638 5637 5637 5636 5635 5632 5629 5630 5631 5631 5630 5626 5624 5624 5624 5623 5622 5620 5618 5616 5615 5615
5642 5642 5642 5641 5641 5641 5641 5641 5641 5640 5639 5639 5639 5638 5638 5637 5633 5630 5627 5630 5631 5632 5631 5630 5627 5627 5625 5623 5624 5626 5625 5626 5624 5622 5620 5619 5618 5617 5614 5613 5613 5612 5612
5635 5635 5634 5634 5634 5634 5634 5634 5633 5633 5633 5633 5633 5633 5632 5631 5628 5624 5622 5624 5625 5625 5625 5625 5624 5620 5618 5616 5616 5619 5620 5619 5619 5618 5618 5617 5616 5614 5612 5610 5609 5607 5607
5626 5626 5627 5627 5627 5627 5626 5625 5625 5625 5624 5625 5625 5625 5625 5624 5622 5619 5616 5615 5617 5619 5620 5620 5619 5614 5611 5610 5609 5610 5609 5609 5611 5612 5612 5612 5611 5610 5609 5606 5603 5602 5601
5617 5618 5618 5619 5619 5618 5618 5617 5618 5617 5617 5618 5618 5618 5618 5618 5616 5613 5610 5609 5608 5610 5613 5612 5610 5607 5604 5603 5603 5602 5601 5602 5604 5605 5606 5606 5606 5605 5603 5600 5598 5595 5594
5609 5610 5610 5610 5611 5610 5609 5609 5609 5610 5609 5609 5609 5610 5610 5610 5609 5607 5606 5604 5602 5602 5603 5602 5600 5598 5597 5597 5596 5596 5596 5597 5598 5598 5599 5599 5598 5596 5594 5593 5591 5589 5588
5601 5602 5602 5601 5602 5601 5600 5600 5600 5601 5601 5600 5601 5601 5601 5602 5601 5599 5598 5598 5598 5597 5595 5594 5593 5593 5592 5592 5592 5592 5591 5591 5590 5591 5591 5591 5590 5589 5588 5587 5585 5584 5582
5592 5592 5592 5592 5592 5591 5592 5592 5590 5590 5589 5588 5589 5589 5592 5591 5590 5589 5588 5588 5587 5586 5585 5587 5587 5587 5587 5587 5586 5586 5585 5585 5585 5584 5584 5584 5583 5583 5582 5580 5578 5577 5577
5583 5583 5582 5582 5582 5582 5583 5583 5584 5582 5580 5579 5579 5579 5579 5580 5580 5580 5579 5577 5577 5575 5576 5580 5580 5580 5580 5580 5580 5579 5579 5578 5577 5577 5577 5577 5576 5576 5575 5574 5572 5570 5570
5572 5572 5571 5572 5572 5573 5574 5574 5574 5575 5575 5575 5573 5571 5570 5570 5570 5570 5568 5567 5567 5567 5570 5572 5573 5573 5573 5572 5572 5572 5571 5570 5569 5569 5569 5569 5568 5568 5567 5567 5566 5565 5564
5562 5562 5561 5561 5561 5562 5563 5564 5565 5565 5566 5567 5567 5566 5562 5561 5560 5559 5558 5559 5562 5562 5562 5563 5563 5564 5564 5564 5564 5564 5563 5563 5562 5562 5562 5562 5562 5561 5560 5560 5559 5556 5555
5551 5550 5549 5550 5551 5552 5553 5554 5554 5555 5556 5557 5557 5557 5554 5552 5553 5553 5551 5553 5554 5555 5554 5554 5553 5553 5554 5555 5555 5555 5555 5555 5555 5555 5556 5555 5554 5553 5553 5552 5551 5550 5549
5541 5541 5538 5539 5540 5541 5542 5542 5543 5544 5545 5546 5547 5546 5542 5543 5545 5546 5546 5546 5546 5546 5546 5545 5544 5543 5544 5544 5545 5546 5546 5547 5547 5547 5547 5547 5546 5545 5545 5545 5544 5543 5542
5529 5530 5529 5529 5529 5529 5529 5530 5531 5532 5534 5535 5536 5536 5532 5533 5536 5537 5537 5537 5538 5537 5536 5535 5535 5535 5535 5535 5536 5537 5538 5538 5538 5538 5538 5537 5536 5536 5536 5536 5535 5533 5532
5518 5519 5519 5519 5518 5517 5518 5519 5520 5522 5523 5525 5525 5525 5525 5526 5527 5528 5528 5527 5527 5527 5526 5525 5525 5526 5526 5526 5526 5527 5529 5530 5530 5529 5529 5528 5527 5527 5527 5527 5525 5524 5523
5506 5507 5507 5507 5507 5507 5508 5509 5510 5511 5513 5513 5515 5516 5517 5517 5517 5517 5517 5517 5516 5516 5515 5515 5516 5517 5517 5517 5517 5518 5519 5519 5519 5519 5519 5519 5519 5518 5518 5517 5516 5515 5514
5495 5494 5495 5495 5495 5495 5496 5498 5499 5501 5502 5503 5504 5505 5507 5507 5508 5507 5507 5506 5506 5506 5506 5506 5506 5507 5508 5509 5509 5510 5510 5509 5509 5509 5509 5508 5509 5508 5508 5508 5507 5506 5504
5483 5483 5483 5483 5483 5483 5485 5486 5488 5489 5491 5492 5494 5495 5496 5496 5496 5496 5496 5496 5496 5496 5496 5497 5498 5498 5499 5500 5501 5501 5501 5500 5499 5499 5498 5499 5499 5499 5498 5498 5497 5496 5494